Regional Weather Roundup
Issued by NWS

Home | Current Version | Previous Version | Graphics & Text | Print | Product List | Glossary Off
Versions: 1 2 3 4 5 6 7 8 9 10 11 12 13 14 15 16 17 18 19 20 21 22 23 24 25 26 27 28 29 30 31 32 33 34 35 36 37 38 39 40 41 42 43 44 45 46 47 48 49 50

000
ASUS43 KOAX 211510
RWRNE

WEATHER ROUNDUP FOR NEBRASKA
NATIONAL WEATHER SERVICE OMAHA NE
1000 AM CDT TUE APR 21 2015

NOTES: SATELLITE DATA IS BEING USED TO AUGMENT CLOUD COVER ABOVE
       12000 FEET.
       "FAIR" INDICATES FEW OR NO CLOUDS BELOW 12,000 FEET WITH NO
       SIGNIFICANT WEATHER AND/OR OBSTRUCTIONS TO VISIBILITY.

  * THESE STATIONS DO NOT REPORT WEATHER SUCH AS RAIN...SNOW OR FOG.

NEZ001>004-019>022-054>056-211600-
NEBRASKA PANHANDLE

CITY           SKY/WX    TMP DP  RH WIND       PRES   REMARKS
SCOTTSBLUFF    SUNNY     45  31  58 W8        29.89S
ALLIANCE       SUNNY     49  27  42 W14G24    29.86F
CHADRON        SUNNY     50  28  42 W14       29.83S
KIMBALL        SUNNY     48  29  47 W10       29.90S
SIDNEY         SUNNY     50  31  48 W10       29.90F
$$

NEZ057>060-069>072-079>082-211600-
SOUTHWEST NEBRASKA

CITY           SKY/WX    TMP DP  RH WIND       PRES   REMARKS
NORTH PLATTE   SUNNY     48  33  56 SW3       29.88F
IMPERIAL       SUNNY     47  27  45 CALM      29.91F
LEXINGTON      SUNNY     50  35  55 W6        29.88S
MCCOOK         SUNNY     48  30  49 SW7       29.90F
OGALLALA       SUNNY     44  32  61 W9        29.89F
$$

NEZ005>010-023>029-035>040-094-211600-
NORTH CENTRAL NEBRASKA

CITY           SKY/WX    TMP DP  RH WIND       PRES   REMARKS
VALENTINE      CLOUDY    48  26  42 W12       29.81F
AINSWORTH      MOSUNNY   51  27  39 W15       29.82S
BROKEN BOW     SUNNY     52  25  35 W13       29.84F
O`NEILL        PTSUNNY   52  26  37 NW16      29.82S
ORD            SUNNY     50  27  40 W13       29.83F
THEDFORD       MOSUNNY   52  27  38 W15       29.84S
$$

NEZ041-046>049-061>064-073>077-083>087-211600-
SOUTH CENTRAL NEBRASKA

CITY           SKY/WX    TMP DP  RH WIND       PRES   REMARKS
GRAND ISLAND   SUNNY     52  29  41 W14       29.86S
AURORA         SUNNY     53  29  40 W12       29.86S
HASTINGS       SUNNY     51  29  42 W10       29.86S
HEBRON         SUNNY     55  25  32 NW8       29.88R
HOLDREGE       SUNNY     52  26  36 W8        29.88S
KEARNEY *      SUNNY     52  28  40 W8        29.87F
YORK           SUNNY     52  28  40 NW10      29.85S
$$

NEZ011>018-030>034-042>045-211600-
NORTHEAST NEBRASKA

CITY           SKY/WX    TMP DP  RH WIND       PRES   REMARKS
NORFOLK        SUNNY     52  24  33 NW17      29.81S
ALBION         SUNNY     52  23  32 NW14      29.82F
BLAIR          SUNNY     50  23  34 W9        29.81S
COLUMBUS *     SUNNY     52  28  40 W12       29.85S
FREMONT        SUNNY     53  29  39 W17       29.82S
TEKAMAH        SUNNY     53  28  38 NW20      29.80F
WAYNE          SUNNY     46  23  39 N18G25    29.83R
$$

NEZ050>053-065>068-078-088>093-211600-
SOUTHEAST NEBRASKA

CITY           SKY/WX    TMP DP  RH WIND       PRES   REMARKS
LINCOLN        SUNNY     55  25  31 NW14      29.85F
OMAHA EPPLEY   SUNNY     54  24  31 W18G24    29.80F
BEATRICE       SUNNY     53  31  44 W7        29.86S
FALLS CITY     SUNNY     55  32  41 W12       29.85S
NEBRASKA CITY  SUNNY     54  17  23 NW16      29.84R
PLATTSMOUTH    SUNNY     54  20  26 W14       29.82S
$$

NEZ044-045-051>053-067-211600-
OMAHA AREA

CITY           SKY/WX    TMP DP  RH WIND       PRES   REMARKS
OMAHA EPPLEY   SUNNY     54  24  31 W18G24    29.80F
BLAIR          SUNNY     50  23  34 W9        29.81S
FREMONT        SUNNY     53  29  39 W17       29.82S
MILLARD        SUNNY     55  27  35 W14       29.82S
OFFUTT AFB     SUNNY     54  25  32 W13       29.81F
PLATTSMOUTH    SUNNY     54  20  26 W14       29.82S
WAHOO          FAIR      56  18  22 NW18G24   29.82S
$$


USA.gov is the U.S. government's official web portal to all federal, state and local government web resources and services.